LNI522 WAHI-WAOO

Flight info

Callsign LNI522
Flight time 1h 24m
Altitude 37000
Route SO W17N PURWO DCT BA DCT SIPUT DCT IKAPI
Aircraft B738/M-SDE2E3FGHIRWXY/LB1

Departure

Time 2026-04-28 13:54
Airport Yogyakarta International Airport (WAHI)

Arrival

Time 2026-04-28 15:18
Airport Syamsudin Noor International Airport (WAOO)
Time Latitude Longitude Altitude Speed Heading
2026-04-28 13:18 -7.90021 110.05641 29 ft 0 kts 21°
2026-04-28 13:42 -7.90028 110.05639 7 ft 4 kts 20°
2026-04-28 13:42 -7.90052 110.05631 43 ft 4 kts 15°
2026-04-28 13:42 -7.90077 110.05625 40 ft 4 kts 10°
2026-04-28 13:42 -7.90101 110.05622 39 ft 4 kts 358°
2026-04-28 13:43 -7.90124 110.05627 39 ft 4 kts 322°
2026-04-28 13:43 -7.90132 110.05637 41 ft 1 kts 291°
2026-04-28 13:43 -7.90133 110.05639 41 ft 0 kts 291°
2026-04-28 13:46 -7.90127 110.05625 41 ft 5 kts 291°
2026-04-28 13:46 -7.90108 110.05574 41 ft 11 kts 290°
2026-04-28 13:47 -7.90074 110.05482 43 ft 17 kts 290°
2026-04-28 13:47 -7.90032 110.05367 43 ft 17 kts 290°
2026-04-28 13:47 -7.89990 110.05258 43 ft 14 kts 291°
2026-04-28 13:47 -7.89966 110.05194 43 ft 10 kts 283°
2026-04-28 13:48 -7.89997 110.05144 43 ft 9 kts 203°
2026-04-28 13:48 -7.90057 110.05120 42 ft 10 kts 201°
2026-04-28 13:48 -7.90109 110.05083 41 ft 9 kts 244°
2026-04-28 13:48 -7.90096 110.05022 40 ft 9 kts 292°
2026-04-28 13:49 -7.90066 110.04948 43 ft 14 kts 290°
2026-04-28 13:49 -7.90033 110.04854 42 ft 14 kts 290°
2026-04-28 13:49 -7.89999 110.04762 44 ft 14 kts 290°
2026-04-28 13:49 -7.89967 110.04675 45 ft 13 kts 290°
2026-04-28 13:50 -7.89936 110.04590 44 ft 13 kts 290°
2026-04-28 13:50 -7.89906 110.04507 43 ft 12 kts 290°
2026-04-28 13:50 -7.89877 110.04427 42 ft 12 kts 290°
2026-04-28 13:50 -7.89854 110.04363 44 ft 8 kts 290°
2026-04-28 13:51 -7.89866 110.04314 45 ft 7 kts 228°
2026-04-28 13:51 -7.89903 110.04311 45 ft 3 kts 162°
2026-04-28 13:51 -7.89909 110.04314 45 ft 0 kts 161°
2026-04-28 13:52 -7.89910 110.04314 45 ft 0 kts 161°
2026-04-28 13:52 -7.89921 110.04318 45 ft 4 kts 159°
2026-04-28 13:52 -7.89960 110.04336 46 ft 9 kts 154°
2026-04-28 13:52 -7.90024 110.04367 47 ft 11 kts 151°
2026-04-28 13:53 -7.90061 110.04429 46 ft 13 kts 111°
2026-04-28 13:53 -7.90159 110.04699 41 ft 78 kts 110°
2026-04-28 13:53 -7.90429 110.05438 43 ft 144 kts 110°
2026-04-28 13:53 -7.90839 110.06518 319 ft 177 kts 115°
2026-04-28 13:54 -7.91502 110.07575 1213 ft 172 kts 130°
2026-04-28 13:54 -7.92301 110.08346 2386 ft 157 kts 141°
2026-04-28 13:54 -7.93323 110.08969 2747 ft 192 kts 158°
2026-04-28 13:54 -7.94752 110.09057 3019 ft 223 kts 187°
2026-04-28 13:55 -7.96368 110.08895 3387 ft 241 kts 180°
2026-04-28 13:55 -7.98079 110.08905 3997 ft 249 kts 176°
2026-04-28 13:55 -7.99815 110.09013 4856 ft 251 kts 174°
2026-04-28 13:55 -8.01562 110.09171 5706 ft 253 kts 173°
2026-04-28 13:56 -8.03323 110.09351 6522 ft 256 kts 172°
2026-04-28 13:56 -8.05105 110.09541 7309 ft 259 kts 171°
2026-04-28 13:56 -8.06873 110.09963 7900 ft 270 kts 157°
2026-04-28 13:56 -8.08642 110.10757 8414 ft 282 kts 152°
2026-04-28 13:57 -8.10423 110.11638 9163 ft 287 kts 152°
2026-04-28 13:57 -8.12229 110.12531 9955 ft 290 kts 152°
2026-04-28 13:57 -8.14079 110.13431 10466 ft 305 kts 152°
2026-04-28 13:57 -8.16073 110.14387 10625 ft 329 kts 153°
2026-04-28 13:58 -8.18212 110.15399 10862 ft 347 kts 153°
2026-04-28 13:58 -8.20422 110.16434 10864 ft 351 kts 153°
2026-04-28 13:58 -8.22610 110.17455 10998 ft 354 kts 153°
2026-04-28 13:58 -8.24905 110.18524 11555 ft 360 kts 153°
2026-04-28 13:59 -8.26394 110.19217 12157 ft 356 kts 153°
2026-04-28 13:59 -8.28649 110.20268 12888 ft 358 kts 153°
2026-04-28 13:59 -8.30967 110.21226 13489 ft 365 kts 164°
2026-04-28 13:59 -8.33524 110.21346 14038 ft 375 kts 188°
2026-04-28 14:00 -8.35988 110.20458 14605 ft 382 kts 209°
2026-04-28 14:00 -8.38529 110.17987 14849 ft 389 kts 239°
2026-04-28 14:00 -8.39356 110.16339 14905 ft 389 kts 245°
2026-04-28 14:00 -8.40502 110.13846 14885 ft 392 kts 246°
2026-04-28 14:01 -8.41182 110.11199 15544 ft 391 kts 268°
2026-04-28 14:01 -8.40876 110.08519 15357 ft 382 kts 287°
2026-04-28 14:01 -8.39741 110.06184 15186 ft 372 kts 305°
2026-04-28 14:01 -8.38041 110.04271 15092 ft 361 kts 320°
2026-04-28 14:02 -8.35929 110.02939 15028 ft 360 kts 334°
2026-04-28 14:02 -8.33635 110.01855 15010 ft 368 kts 334°
2026-04-28 14:02 -8.31301 110.00734 15216 ft 374 kts 334°
2026-04-28 14:02 -8.28911 109.99646 15893 ft 378 kts 341°
2026-04-28 14:03 -8.26322 109.99258 16643 ft 379 kts 359°
2026-04-28 14:03 -8.23683 109.99195 17336 ft 381 kts 357°
2026-04-28 14:03 -8.21015 109.99064 17917 ft 386 kts 356°
2026-04-28 14:03 -8.18317 109.98902 18521 ft 390 kts 356°
2026-04-28 14:04 -8.15587 109.98728 19134 ft 394 kts 356°
2026-04-28 14:04 -8.12833 109.98553 19728 ft 397 kts 356°
2026-04-28 14:04 -8.10055 109.98377 20303 ft 400 kts 356°
2026-04-28 14:04 -8.07264 109.98203 20849 ft 404 kts 356°
2026-04-28 14:05 -8.04447 109.98029 21384 ft 407 kts 356°
2026-04-28 14:05 -8.01646 109.97857 21894 ft 410 kts 356°
2026-04-28 14:05 -7.98776 109.97681 22400 ft 414 kts 356°
2026-04-28 14:05 -7.95889 109.97503 22883 ft 417 kts 356°
2026-04-28 14:06 -7.92981 109.97325 23356 ft 420 kts 356°
2026-04-28 14:06 -7.90056 109.97146 23816 ft 423 kts 356°
2026-04-28 14:06 -7.87101 109.97077 24257 ft 426 kts
2026-04-28 14:06 -7.84144 109.97382 24654 ft 430 kts 15°
2026-04-28 14:07 -7.81456 109.98689 25060 ft 433 kts 37°
2026-04-28 14:07 -7.79335 110.00842 25530 ft 434 kts 54°
2026-04-28 14:07 -7.77900 110.03510 25920 ft 436 kts 70°
2026-04-28 14:07 -7.77225 110.06504 26264 ft 440 kts 88°
2026-04-28 14:08 -7.77434 110.09556 26634 ft 441 kts 98°
2026-04-28 14:08 -7.77866 110.12625 27019 ft 443 kts 98°
2026-04-28 14:08 -7.78282 110.15720 27340 ft 447 kts 97°
2026-04-28 14:08 -7.78671 110.18839 27671 ft 449 kts 97°
2026-04-28 14:09 -7.79047 110.21980 28013 ft 451 kts 97°
2026-04-28 14:09 -7.79406 110.25135 28347 ft 454 kts 96°
2026-04-28 14:09 -7.79751 110.28301 28664 ft 456 kts 96°
2026-04-28 14:09 -7.80037 110.31491 28962 ft 458 kts 91°
2026-04-28 14:10 -7.79723 110.34696 29236 ft 461 kts 79°
2026-04-28 14:10 -7.79146 110.37881 29571 ft 462 kts 81°
2026-04-28 14:10 -7.78666 110.41053 29835 ft 464 kts 79°
2026-04-28 14:10 -7.77637 110.44148 30025 ft 468 kts 60°
2026-04-28 14:11 -7.75698 110.46781 30334 ft 468 kts 47°
2026-04-28 14:11 -7.73500 110.49201 30742 ft 467 kts 47°
2026-04-28 14:11 -7.71324 110.51629 31086 ft 467 kts 48°
2026-04-28 14:11 -7.69158 110.54076 31411 ft 467 kts 48°
2026-04-28 14:12 -7.67015 110.56523 31766 ft 466 kts 49°
2026-04-28 14:12 -7.64881 110.58974 30704 ft 465 kts 49°
2026-04-28 14:12 -7.62738 110.61440 30961 ft 465 kts 49°
2026-04-28 14:12 -7.60605 110.63895 31159 ft 467 kts 49°
2026-04-28 14:13 -7.58484 110.66334 31350 ft 468 kts 49°
2026-04-28 14:13 -7.56335 110.68802 31582 ft 468 kts 49°
2026-04-28 14:13 -7.54177 110.71267 31899 ft 466 kts 46°
2026-04-28 14:13 -7.51676 110.73312 32171 ft 465 kts 28°
2026-04-28 14:14 -7.48684 110.74534 32526 ft 463 kts 14°
2026-04-28 14:14 -7.45502 110.74948 32845 ft 462 kts
2026-04-28 14:14 -7.42281 110.74953 33139 ft 461 kts
2026-04-28 14:14 -7.39066 110.74941 33372 ft 462 kts
2026-04-28 14:15 -7.35839 110.74950 33655 ft 461 kts
2026-04-28 14:15 -7.32682 110.74987 33984 ft 459 kts
2026-04-28 14:15 -7.29450 110.75039 34268 ft 458 kts
2026-04-28 14:15 -7.26270 110.75163 34488 ft 458 kts
2026-04-28 14:16 -7.23258 110.76067 34614 ft 458 kts 27°
2026-04-28 14:16 -7.20636 110.77878 34855 ft 456 kts 43°
2026-04-28 14:16 -7.18550 110.80277 35119 ft 455 kts 56°
2026-04-28 14:16 -7.17137 110.83123 35282 ft 456 kts 71°
2026-04-28 14:17 -7.16203 110.86172 35513 ft 456 kts 73°
2026-04-28 14:17 -7.15310 110.89235 35730 ft 456 kts 73°
2026-04-28 14:17 -7.14417 110.92309 35957 ft 455 kts 73°
2026-04-28 14:17 -7.13519 110.95358 36198 ft 455 kts 73°
2026-04-28 14:18 -7.12916 110.97378 36360 ft 454 kts 73°
2026-04-28 14:18 -7.11687 111.01444 36658 ft 454 kts 73°
2026-04-28 14:18 -7.10773 111.04439 36868 ft 453 kts 73°
2026-04-28 14:18 -7.09841 111.07484 36862 ft 457 kts 73°
2026-04-28 14:19 -7.07972 111.13586 36872 ft 454 kts 73°
2026-04-28 14:19 -7.06120 111.19634 36880 ft 450 kts 73°
2026-04-28 14:20 -7.04280 111.25645 36887 ft 447 kts 73°
2026-04-28 14:20 -7.02457 111.31597 36886 ft 446 kts 73°
2026-04-28 14:21 -7.00630 111.37559 36889 ft 446 kts 73°
2026-04-28 14:21 -6.98498 111.43412 36874 ft 447 kts 61°
2026-04-28 14:22 -6.95225 111.48750 36889 ft 449 kts 58°
2026-04-28 14:22 -6.91902 111.54097 36892 ft 451 kts 58°
2026-04-28 14:23 -6.88616 111.59455 36891 ft 452 kts 59°
2026-04-28 14:23 -6.85320 111.64865 36889 ft 454 kts 59°
2026-04-28 14:24 -6.82015 111.70298 36889 ft 455 kts 59°
2026-04-28 14:24 -6.78703 111.75738 36890 ft 456 kts 59°
2026-04-28 14:25 -6.75391 111.81175 36884 ft 455 kts 59°
2026-04-28 14:25 -6.72097 111.86580 36884 ft 454 kts 59°
2026-04-28 14:26 -6.68806 111.91980 36887 ft 452 kts 59°
2026-04-28 14:26 -6.65520 111.97368 36887 ft 450 kts 59°
2026-04-28 14:27 -6.62247 112.02733 36884 ft 448 kts 59°
2026-04-28 14:27 -6.59012 112.08036 36886 ft 447 kts 59°
2026-04-28 14:28 -6.55761 112.13363 36886 ft 446 kts 59°
2026-04-28 14:28 -6.52517 112.18677 36889 ft 445 kts 59°
2026-04-28 14:29 -6.49271 112.23992 36888 ft 445 kts 59°
2026-04-28 14:29 -6.46030 112.29298 36888 ft 445 kts 59°
2026-04-28 14:30 -6.42782 112.34612 36891 ft 446 kts 59°
2026-04-28 14:30 -6.39531 112.39932 36889 ft 447 kts 59°
2026-04-28 14:31 -6.36289 112.45236 36890 ft 448 kts 59°
2026-04-28 14:31 -6.33018 112.50585 36888 ft 449 kts 59°
2026-04-28 14:32 -6.29739 112.55946 36894 ft 450 kts 59°
2026-04-28 14:32 -6.25958 112.60940 36900 ft 450 kts 46°
2026-04-28 14:33 -6.21582 112.65461 36896 ft 451 kts 46°
2026-04-28 14:33 -6.17238 112.69970 36889 ft 452 kts 47°
2026-04-28 14:34 -6.10709 112.76824 36893 ft 452 kts 47°
2026-04-28 14:35 -6.06400 112.81364 36895 ft 451 kts 47°
2026-04-28 14:35 -6.02054 112.85942 36898 ft 451 kts 47°
2026-04-28 14:36 -5.97723 112.90502 36896 ft 451 kts 47°
2026-04-28 14:36 -5.93396 112.95057 36895 ft 450 kts 47°
2026-04-28 14:37 -5.89088 112.99590 36893 ft 450 kts 47°
2026-04-28 14:37 -5.84767 113.04134 36895 ft 450 kts 47°
2026-04-28 14:38 -5.80451 113.08673 36893 ft 449 kts 47°
2026-04-28 14:38 -5.76126 113.13221 36899 ft 449 kts 47°
2026-04-28 14:39 -5.71802 113.17766 36896 ft 449 kts 47°
2026-04-28 14:39 -5.67504 113.22282 36898 ft 449 kts 47°
2026-04-28 14:40 -5.63182 113.26824 36898 ft 449 kts 47°
2026-04-28 14:40 -5.58872 113.31351 36898 ft 448 kts 47°
2026-04-28 14:41 -5.54581 113.35857 36894 ft 448 kts 47°
2026-04-28 14:41 -5.50268 113.40386 36899 ft 448 kts 47°
2026-04-28 14:42 -5.45931 113.44938 36894 ft 448 kts 47°
2026-04-28 14:42 -5.41652 113.49429 36897 ft 448 kts 47°
2026-04-28 14:43 -5.37343 113.53950 36894 ft 448 kts 47°
2026-04-28 14:43 -5.33733 113.57738 36897 ft 447 kts 47°
2026-04-28 14:44 -5.29452 113.62227 36896 ft 447 kts 47°
2026-04-28 14:44 -5.25148 113.66741 36898 ft 447 kts 47°
2026-04-28 14:45 -5.20145 113.71986 36894 ft 446 kts 47°
2026-04-28 14:45 -5.16569 113.75734 36895 ft 446 kts 47°
2026-04-28 14:46 -5.12270 113.80241 36891 ft 446 kts 47°
2026-04-28 14:46 -5.07974 113.84742 36894 ft 445 kts 47°
2026-04-28 14:47 -5.03721 113.89198 36891 ft 445 kts 47°
2026-04-28 14:47 -4.99445 113.93677 36892 ft 444 kts 47°
2026-04-28 14:48 -4.94674 113.97565 36910 ft 447 kts 25°
2026-04-28 14:48 -4.91687 113.98444 36887 ft 451 kts 11°
2026-04-28 14:48 -4.88577 113.98888 36907 ft 451 kts 10°
2026-04-28 14:48 -4.85449 113.99332 36665 ft 455 kts 10°
2026-04-28 14:49 -4.82296 113.99790 36145 ft 457 kts 10°
2026-04-28 14:49 -4.79160 114.00257 35555 ft 456 kts 10°
2026-04-28 14:49 -4.76063 114.00728 35069 ft 454 kts 11°
2026-04-28 14:49 -4.72909 114.01213 34597 ft 452 kts 11°
2026-04-28 14:50 -4.69852 114.01687 34166 ft 449 kts 11°
2026-04-28 14:50 -4.66768 114.02167 33665 ft 447 kts 11°
2026-04-28 14:50 -4.63700 114.02644 33197 ft 444 kts 11°
2026-04-28 14:50 -4.60652 114.03118 32738 ft 441 kts 10°
2026-04-28 14:51 -4.57629 114.03587 32291 ft 438 kts 10°
2026-04-28 14:51 -4.54629 114.04053 31859 ft 435 kts 10°
2026-04-28 14:51 -4.51646 114.04516 31428 ft 432 kts 10°
2026-04-28 14:51 -4.48680 114.04976 30998 ft 430 kts 10°
2026-04-28 14:52 -4.45730 114.05434 30553 ft 428 kts 10°
2026-04-28 14:52 -4.42794 114.05889 30127 ft 426 kts 10°
2026-04-28 14:52 -4.39868 114.06343 29648 ft 424 kts 10°
2026-04-28 14:52 -4.36967 114.06793 29177 ft 420 kts 10°
2026-04-28 14:53 -4.34083 114.07240 28719 ft 417 kts 10°
2026-04-28 14:53 -4.31258 114.07678 28282 ft 414 kts 10°
2026-04-28 14:53 -4.28420 114.08118 27844 ft 411 kts 10°
2026-04-28 14:53 -4.25604 114.08554 27415 ft 408 kts 10°
2026-04-28 14:54 -4.22808 114.08988 26988 ft 405 kts 10°
2026-04-28 14:54 -4.20032 114.09418 26566 ft 402 kts 10°
2026-04-28 14:54 -4.17274 114.09846 26144 ft 399 kts 10°
2026-04-28 14:54 -4.14528 114.10272 25721 ft 397 kts 10°
2026-04-28 14:55 -4.11836 114.10689 25295 ft 396 kts 10°
2026-04-28 14:55 -4.09122 114.11110 24870 ft 394 kts 10°
2026-04-28 14:55 -4.06413 114.11530 24442 ft 393 kts 10°
2026-04-28 14:55 -4.03717 114.11947 24026 ft 391 kts 10°
2026-04-28 14:56 -4.01001 114.12131 23592 ft 393 kts 358°
2026-04-28 14:56 -3.98286 114.11880 23132 ft 391 kts 355°
2026-04-28 14:56 -3.95580 114.11591 22680 ft 389 kts 355°
2026-04-28 14:56 -3.92897 114.11320 22257 ft 386 kts 356°
2026-04-28 14:57 -3.90238 114.11071 21837 ft 383 kts 356°
2026-04-28 14:57 -3.88484 114.10916 21569 ft 381 kts 356°
2026-04-28 14:57 -3.84963 114.10616 21027 ft 377 kts 356°
2026-04-28 14:57 -3.82379 114.10398 20903 ft 367 kts 356°
2026-04-28 14:58 -3.79877 114.10187 20876 ft 353 kts 357°
2026-04-28 14:58 -3.77472 114.09984 20857 ft 340 kts 357°
2026-04-28 14:58 -3.75154 114.09790 20855 ft 327 kts 357°
2026-04-28 14:58 -3.72925 114.09604 20855 ft 315 kts 357°
2026-04-28 14:59 -3.70807 114.09427 20790 ft 305 kts 357°
2026-04-28 14:59 -3.68710 114.09254 20562 ft 301 kts 357°
2026-04-28 14:59 -3.66631 114.09082 20188 ft 300 kts 357°
2026-04-28 14:59 -3.64543 114.08909 19744 ft 302 kts 357°
2026-04-28 15:00 -3.62393 114.08732 18808 ft 320 kts 357°
2026-04-28 15:00 -3.60077 114.08542 17751 ft 346 kts 356°
2026-04-28 15:00 -3.57648 114.08340 17151 ft 352 kts 356°
2026-04-28 15:00 -3.55217 114.08136 16820 ft 348 kts 356°
2026-04-28 15:01 -3.52836 114.07936 16436 ft 341 kts 356°
2026-04-28 15:01 -3.50471 114.07739 15950 ft 340 kts 356°
2026-04-28 15:01 -3.48122 114.07772 15403 ft 338 kts 14°
2026-04-28 15:01 -3.46006 114.08714 14951 ft 331 kts 38°
2026-04-28 15:02 -3.44445 114.10364 14522 ft 326 kts 58°
2026-04-28 15:02 -3.43517 114.12418 14078 ft 325 kts 77°
2026-04-28 15:02 -3.43227 114.14655 13757 ft 323 kts 85°
2026-04-28 15:02 -3.43050 114.16888 13414 ft 321 kts 85°
2026-04-28 15:03 -3.42882 114.19108 13031 ft 320 kts 85°
2026-04-28 15:03 -3.42713 114.21323 12698 ft 317 kts 85°
2026-04-28 15:03 -3.42543 114.23483 12603 ft 306 kts 85°
2026-04-28 15:03 -3.42375 114.25567 12456 ft 295 kts 85°
2026-04-28 15:04 -3.42212 114.27562 12175 ft 289 kts 85°
2026-04-28 15:04 -3.42048 114.29560 11800 ft 287 kts 85°
2026-04-28 15:04 -3.41883 114.31549 11418 ft 286 kts 85°
2026-04-28 15:04 -3.41718 114.33526 11042 ft 284 kts 85°
2026-04-28 15:05 -3.41554 114.35490 10682 ft 283 kts 85°
2026-04-28 15:05 -3.41391 114.37446 10316 ft 281 kts 85°
2026-04-28 15:05 -3.41228 114.39398 9960 ft 280 kts 85°
2026-04-28 15:05 -3.41066 114.41334 9594 ft 278 kts 85°
2026-04-28 15:06 -3.40905 114.43259 9208 ft 277 kts 85°
2026-04-28 15:06 -3.40745 114.45174 8824 ft 276 kts 85°
2026-04-28 15:06 -3.40586 114.47079 8489 ft 272 kts 85°
2026-04-28 15:06 -3.40430 114.48938 8334 ft 263 kts 85°
2026-04-28 15:07 -3.40279 114.50735 8148 ft 254 kts 85°
2026-04-28 15:07 -3.40148 114.52464 8006 ft 246 kts 90°
2026-04-28 15:07 -3.40530 114.54099 7692 ft 244 kts 121°
2026-04-28 15:07 -3.41679 114.55296 7372 ft 244 kts 149°
2026-04-28 15:08 -3.43294 114.55840 7033 ft 244 kts 176°
2026-04-28 15:08 -3.44956 114.55579 6708 ft 244 kts 204°
2026-04-28 15:08 -3.46281 114.54579 6386 ft 243 kts 233°
2026-04-28 15:08 -3.47016 114.53072 6066 ft 242 kts 257°
2026-04-28 15:09 -3.47247 114.51410 5747 ft 241 kts 265°
2026-04-28 15:09 -3.47376 114.49739 5419 ft 241 kts 266°
2026-04-28 15:09 -3.47503 114.48067 5119 ft 240 kts 266°
2026-04-28 15:09 -3.47593 114.46945 4924 ft 239 kts 266°
2026-04-28 15:10 -3.47619 114.44760 4499 ft 236 kts 286°
2026-04-28 15:10 -3.46753 114.43422 4155 ft 231 kts 327°
2026-04-28 15:10 -3.45259 114.42984 3823 ft 225 kts
2026-04-28 15:10 -3.43828 114.43552 3643 ft 223 kts 32°
2026-04-28 15:11 -3.42554 114.44471 3408 ft 228 kts 40°
2026-04-28 15:11 -3.41475 114.45587 3434 ft 220 kts 52°
2026-04-28 15:11 -3.40714 114.46915 3465 ft 223 kts 67°
2026-04-28 15:11 -3.40278 114.48420 3476 ft 227 kts 78°
2026-04-28 15:12 -3.40107 114.50000 3475 ft 225 kts 86°
2026-04-28 15:12 -3.40039 114.51514 3455 ft 209 kts 86°
2026-04-28 15:12 -3.40062 114.52906 3439 ft 199 kts 95°
2026-04-28 15:12 -3.40225 114.54263 3441 ft 194 kts 96°
2026-04-28 15:13 -3.40427 114.55593 3458 ft 194 kts 98°
2026-04-28 15:13 -3.40658 114.56929 3480 ft 195 kts 99°
2026-04-28 15:13 -3.40897 114.58228 3467 ft 182 kts 99°
2026-04-28 15:13 -3.41120 114.59409 3443 ft 164 kts 99°
2026-04-28 15:14 -3.41326 114.60509 3444 ft 159 kts 99°
2026-04-28 15:14 -3.41500 114.61579 3446 ft 153 kts 97°
2026-04-28 15:14 -3.41704 114.62632 3456 ft 152 kts 99°
2026-04-28 15:14 -3.41903 114.63648 3476 ft 148 kts 99°
2026-04-28 15:15 -3.42089 114.64644 3472 ft 146 kts 98°
2026-04-28 15:15 -3.42212 114.65312 3465 ft 147 kts 98°
2026-04-28 15:15 -3.42456 114.66637 3361 ft 143 kts 98°
2026-04-28 15:15 -3.42635 114.67603 3044 ft 140 kts 98°
2026-04-28 15:16 -3.42813 114.68565 2649 ft 141 kts 98°
2026-04-28 15:16 -3.42994 114.69550 2584 ft 146 kts 99°
2026-04-28 15:16 -3.43175 114.70583 2136 ft 156 kts 98°
2026-04-28 15:16 -3.43341 114.71688 1430 ft 163 kts 99°
2026-04-28 15:17 -3.43577 114.72894 536 ft 184 kts 105°
2026-04-28 15:17 -3.43827 114.74063 325 ft 162 kts 100°
2026-04-28 15:17 -3.44005 114.75102 141 ft 138 kts 103°
2026-04-28 15:17 -3.44178 114.75965 75 ft 104 kts 100°
2026-04-28 15:18 -3.44272 114.76464 72 ft 43 kts 101°
2026-04-28 15:18 -3.44305 114.76645 74 ft 20 kts 100°
2026-04-28 15:18 -3.44328 114.76782 75 ft 20 kts 99°
2026-04-28 15:18 -3.44352 114.76917 68 ft 19 kts 100°
2026-04-28 15:19 -3.44372 114.77031 72 ft 12 kts 94°
2026-04-28 15:19 -3.44370 114.77087 69 ft 7 kts 116°
2026-04-28 15:19 -3.44397 114.77093 71 ft 2 kts 214°
2026-04-28 15:19 -3.44394 114.77078 63 ft 3 kts 304°
2026-04-28 15:20 -3.44380 114.77051 72 ft 7 kts 292°
2026-04-28 15:20 -3.44365 114.76980 74 ft 14 kts 281°
2026-04-28 15:20 -3.44344 114.76864 70 ft 20 kts 280°
2026-04-28 15:20 -3.44315 114.76707 74 ft 26 kts 280°
2026-04-28 15:21 -3.44282 114.76529 66 ft 26 kts 280°
2026-04-28 15:21 -3.44249 114.76355 73 ft 24 kts 281°
2026-04-28 15:21 -3.44219 114.76195 67 ft 23 kts 281°
2026-04-28 15:21 -3.44192 114.76051 66 ft 16 kts 281°
2026-04-28 15:22 -3.44175 114.75970 73 ft 10 kts 288°
2026-04-28 15:22 -3.44133 114.75945 75 ft 8 kts
2026-04-28 15:22 -3.44079 114.75954 73 ft 8 kts 10°
2026-04-28 15:22 -3.44027 114.75964 74 ft 7 kts 10°
2026-04-28 15:23 -3.43979 114.75972 73 ft 5 kts
2026-04-28 15:23 -3.43966 114.75975 67 ft 1 kts
2026-04-28 15:23 -3.43959 114.75976 67 ft 1 kts
2026-04-28 15:23 -3.43952 114.75977 70 ft 1 kts
2026-04-28 15:24 -3.43938 114.75978 72 ft 3 kts 357°
2026-04-28 15:24 -3.43919 114.75958 70 ft 5 kts 289°
2026-04-28 15:24 -3.43910 114.75922 74 ft 5 kts 282°
2026-04-28 15:24 -3.43903 114.75887 69 ft 5 kts 279°
2026-04-28 15:25 -3.43898 114.75852 74 ft 5 kts 279°
2026-04-28 15:25 -3.43892 114.75817 74 ft 6 kts 279°
2026-04-28 15:25 -3.43884 114.75772 74 ft 7 kts 280°
2026-04-28 15:25 -3.43868 114.75731 66 ft 6 kts 323°
2026-04-28 15:26 -3.43825 114.75734 72 ft 6 kts
2026-04-28 15:26 -3.43793 114.75739 67 ft 1 kts 10°
2026-04-28 15:26 -3.43792 114.75740 67 ft 0 kts 10°